# Land Stadt Wetter Temperatur Luftdruck Luftfeuchtigkeit Sichtweite Windgeschwindigkeit Windrichtung Ortszeit
1 et Addis Abeba Clouds 13 1026 82 10000 0 0 02.08.2018 14:23
2 us Fairbanks Clouds 6 1005 88 10000 0 0 02.08.2018 14:23
3 it Palermo Clear 21 1004 49 10000 2 236 02.08.2018 14:22
4 ad Andorra la Vella Clouds 11 1030 82 10000 2 341 02.08.2018 14:22
5 ar Esquel Clouds 8 1021 62 10000 2 226 02.08.2018 14:22
6 us Denver Clouds 13 1019 81 10000 3 45 02.08.2018 14:21
7 ru Werchojansk Clouds -2 1017 79 10000 3 201 02.08.2018 14:22
8 de Oberstdorf Clouds 10 1022 96 10000 3 152 02.08.2018 14:21
9 it Mailand Clear 13 1018 90 10000 3 248 02.08.2018 14:21
10 sa Riad Clear 28 1010 13 10000 3 15 02.08.2018 14:21
11 cd Kisangani Clouds 21 1013 99 10000 3 107 02.08.2018 14:23
12 tr Ankara Clear 20 1013 47 10000 4 0 02.08.2018 14:23
13 sb Honiara Clouds 28 1009 76 10000 4 67 02.08.2018 14:22
14 de Stuttgart Clouds 13 1020 91 10000 4 0 02.08.2018 14:22
15 af Kabul Clear 19 1013 21 10000 4 44 02.08.2018 14:21
16 th Bangkok Rain 32 1005 53 10000 4 291 02.08.2018 14:21
17 pe Cusco Clouds 11 1019 64 10000 5 302 02.08.2018 14:23
18 no Oslo Clouds 9 1003 1 10000 5 20 02.08.2018 14:23
19 de München Rain 12 1022 91 10000 5 309 02.08.2018 14:21
20 cn Peking Clouds 21 1011 75 10000 5 47 02.08.2018 14:23
21 mx Veracruz Clouds 25 1014 72 10000 5 318 02.08.2018 14:21
22 se Stockholm Clouds 11 1001 94 10000 6 100 02.08.2018 14:23
23 de Freiburg Clouds 15 1020 87 10000 6 189 02.08.2018 14:22
24 bo Potisi Clear 3 1020 87 10000 6 339 02.08.2018 14:22
25 cl Santiago Clear 14 977 63 10000 6 87 02.08.2018 14:23
26 it Rom Clear 15 1022 79 10000 6 66 02.08.2018 14:23
27 es Palma de Mallorca Clouds 14 1027 93 10000 6 10 02.08.2018 14:22
28 ma Marrakesch Clouds 19 1016 59 10000 6 80 02.08.2018 14:23
29 us Death Valley Clear 31 1008 18 10000 6 186 02.08.2018 14:22
30 do Santo Domingo Clouds 25 1017 96 10000 6 213 02.08.2018 14:21
31 at Innsbruck Rain 11 1022 96 10000 6 170 02.08.2018 14:23
32 br Rio de Janeiro Clouds 21 1015 88 10000 7 200 02.08.2018 14:22
33 gl Nuuk Clouds 1 993 93 10000 7 60 02.08.2018 14:22
34 za Kapstadt Clear 13 1015 82 10000 7 20 02.08.2018 14:22
35 ar Buenos Aires Clear 15 1022 86 10000 7 350 02.08.2018 14:22
36 ke Nairobi Clouds 19 1023 68 10000 7 100 02.08.2018 14:22
37 tr Alanya Clear 26 1012 34 10000 7 302 02.08.2018 14:22
38 iq Bagdad Clear 27 1007 29 10000 7 270 02.08.2018 14:22
39 fi Helsinki Clouds 9 1009 90 10000 7 60 02.08.2018 14:21
40 ma Casablanca Clouds 20 1015 56 6000 7 280 02.08.2018 14:23
41 ch Andermatt Clouds 7 1023 95 10000 7 294 02.08.2018 14:23
42 ch Bern Clouds 14 1025 92 10000 7 100 02.08.2018 14:23
43 ru Anadyr Clear 2 1008 74 10000 7 320 02.08.2018 14:23
44 au Alice Springs Clouds 27 1010 26 10000 7 240 02.08.2018 14:21
45 fr Bordeaux Clouds 17 1026 94 10000 7 220 02.08.2018 14:21
46 mn Ulaanbaatar Clouds 0 1025 59 10000 7 0 02.08.2018 14:23
47 ae Dubai Clear 31 1007 66 10000 7 140 02.08.2018 14:21
48 au Darwin Clear 32 1008 46 10000 7 360 02.08.2018 14:22
49 es Madrid Clear 12 1014 60 10000 8 38 02.08.2018 14:23
50 uy Montevideo Fog 13 1021 68 800 8 345 02.08.2018 14:22
51 vn Hanoi Clouds 30 1010 96 10000 9 133 02.08.2018 14:21
52 gb Manchester Clouds 10 1015 93 10000 9 220 02.08.2018 14:21
53 us Tucson Clear 24 1013 61 10000 9 200 02.08.2018 14:21
54 bs Nassau Clear 28 1010 72 10000 9 256 02.08.2018 14:22
55 mn Uliastai Clear -3 1034 19 10000 9 315 02.08.2018 14:23
56 mx Mexiko Stadt Clear 14 1021 66 10000 9 300 02.08.2018 14:21
57 cn Lhasa Clouds 16 1010 40 10000 11 189 02.08.2018 14:22
58 us Chicago Clear 14 1025 84 10000 11 360 02.08.2018 14:23
59 eg Kairo Clouds 25 1014 78 10000 11 20 02.08.2018 14:22
60 us Miami Clouds 24 1011 93 10000 11 10 02.08.2018 14:23
61 fr Nizza Clear 17 1019 84 10000 11 320 02.08.2018 14:22
62 br Manaus Clouds 25 1013 88 10000 11 190 02.08.2018 14:21
63 fi Rovaniemi Rain 4 1006 93 10000 11 120 02.08.2018 14:21
64 us Los Angeles Clouds 18 1016 81 10000 11 250 02.08.2018 14:22
65 us Las Vegas Clear 28 1010 24 10000 11 170 02.08.2018 14:21
66 bo La Paz Clouds 2 1038 93 10000 11 70 02.08.2018 14:22
67 de Trier Rain 13 1018 98 7309 12 212 02.08.2018 14:21
68 in Jagatsukh Clear 22 1014 48 10000 12 196 02.08.2018 14:22
69 fr Paris Clouds 16 1019 93 10000 13 210 02.08.2018 14:22
70 in Mumbai Haze 30 1010 70 5000 13 300 02.08.2018 14:22
71 no Hammerfest Clouds 4 1002 81 10000 13 100 02.08.2018 14:22
72 de Köln Clouds 14 1014 86 10000 13 230 02.08.2018 14:21
73 qa Doha Clear 35 1007 26 10000 13 280 02.08.2018 14:23
74 jp Tokio Clouds 29 1020 36 10000 13 120 02.08.2018 14:22
75 in Nagpur Haze 32 1009 58 5000 13 340 02.08.2018 14:21
76 de Bremen Clouds 11 1012 96 10000 13 260 02.08.2018 14:22
77 ua Kiew Rain 14 989 91 10000 13 166 02.08.2018 14:21
78 us Honolulu Clouds 26 1012 76 10000 13 30 02.08.2018 14:22
79 gb Glasgow Clouds 10 1016 88 10000 14 234 02.08.2018 14:21
80 de Torfhaus Rain 7 1015 99 7653 14 234 02.08.2018 14:22
81 cn Shanghai Clear 33 1010 70 10000 14 180 02.08.2018 14:21
82 ru Surgut Clear 1 1034 59 10000 14 200 02.08.2018 14:23
83 es Las Palmas de Gran Canaria Clouds 21 1016 77 10000 14 24 02.08.2018 14:21
84 de Hamburg Rain 11 1010 97 10000 15 240 02.08.2018 14:21
85 ar Ushuaia Clear 4 1022 60 10000 15 290 02.08.2018 14:22
86 fj Suva Rain 27 1011 78 10000 15 70 02.08.2018 14:21
87 ie Dublin Clouds 10 1017 90 10000 15 240 02.08.2018 14:21
88 ph Manila Clouds 32 1008 58 10000 15 110 02.08.2018 14:21
89 de Braunschweig Clouds 12 1013 90 10000 15 240 02.08.2018 14:21
90 tr Istanbul Clouds 26 1008 47 10000 15 310 02.08.2018 14:23
91 de Hannover Clouds 12 1013 92 10000 15 250 02.08.2018 14:21
92 de Nürnberg Rain 12 1019 86 10000 15 230 02.08.2018 14:21
93 gb London Rain 13 1016 91 10000 15 250 02.08.2018 14:22
94 us Nome Clear 3 1005 70 10000 15 20 02.08.2018 14:23
95 de Dresden Clear 11 1009 87 10000 15 250 02.08.2018 14:22
96 de Frankfurt Rain 13 1016 93 10000 15 200 02.08.2018 14:22
97 ck Avarua Clouds 22 1017 64 10000 15 110 02.08.2018 14:22
98 de Emden Clear 12 1012 92 10000 16 253 02.08.2018 14:21
99 id Jakarta Clouds 32 1007 62 10000 17 355 02.08.2018 14:22
100 ru Moskau Clouds 10 1006 87 10000 17 237 02.08.2018 14:22
101 es Sevilla Clear 17 1020 58 10000 17 60 02.08.2018 14:22
102 jp Nagasaki Clouds 29 1017 58 10000 17 250 02.08.2018 14:21
103 de Magdeburg Clear 9 1004 96 10000 17 240 02.08.2018 14:22
104 ru Jakutsk Clouds -1 1013 58 10000 18 20 02.08.2018 14:22
105 gr Athen Clouds 25 1013 55 10000 19 300 02.08.2018 14:22
106 de Kassel Clouds 11 1014 87 10000 19 200 02.08.2018 14:21
107 pg Port Moresby Haze 31 1005 66 10000 19 150 02.08.2018 14:21
108 ec San Cristobal Clouds 20 1013 89 10000 19 175 02.08.2018 14:22
109 mg Antananarivo Clouds 18 1024 52 10000 19 120 02.08.2018 14:21
110 de Berlin Clear 11 1002 90 10000 20 250 02.08.2018 14:21
111 pt Lissabon Clear 17 1020 67 10000 20 30 02.08.2018 14:22
112 au Sydney Clouds 16 1017 64 10000 20 120 02.08.2018 14:22
113 de Flensburg Clear 11 1007 87 10000 22 260 02.08.2018 14:21
114 es Barcelona Clear 18 1025 68 10000 22 320 02.08.2018 14:22
115 au Perth Clouds 20 1015 46 10000 24 100 02.08.2018 14:21
116 ru Amderma Clouds 3 1013 96 903 26 201 02.08.2018 14:23
117 at Wien Clouds 14 1019 73 10000 26 303 02.08.2018 14:22
118 mv Male Clouds 30 1012 66 10000 30 270 02.08.2018 14:23
119 kr Seoul Rain 22 1014 58 10000 30 120 02.08.2018 14:21
120 ca Montreal Clear 7 1027 70 10000 30 30 02.08.2018 14:22
121 bg Sofia Clouds 16 1019 73 10000 32 280 02.08.2018 14:21
122 bg Warna Rain 19 1009 89 10000 33 270 02.08.2018 14:21
123 us New York Clouds 16 1015 71 10000 39 49 02.08.2018 14:22
124 nz Wellington Clouds 9 1004 96 7000 39 180 02.08.2018 14:23
125 de Helgoland Rain 15 1010 73 10000 39 288 02.08.2018 14:22
126 de Hiddensee Clouds 13 1007 86 10000 41 262 02.08.2018 14:21
127 es Tarifa Clear 18 1021 77 10000 46 87 02.08.2018 14:21
128 is Reykjavik Clouds 8 986 87 10000 46 250 02.08.2018 14:22